Weather History for Pasco, WA

Change the Weather History Date:

Tuesday, April 9, 2013

  Actual Average Record
Temperature  
Mean Temperature 48 °F 52 °F  
Max Temperature 64 °F 66 °F 78 °F (1996)
Min Temperature 31 °F 38 °F 27 °F (2008)
Degree Days  
Heating Degree Days 17 13  
Month to date heating degree days 95 125  
Since 1 July heating degree days 4278 4586  
Cooling Degree Days 0 0  
Month to date cooling degree days 0 0  
Year to date cooling degree days 0 0  
Moisture  
Dew Point 35 °F    
Average Humidity 66    
Maximum Humidity 100    
Minimum Humidity 31    
Precipitation  
Precipitation 0.00 in 0.03 in 0.21 in (1992)
Month to date precipitation 0.34 0.22  
Year to date precipitation 1.05 3.09  
Snow  
Snow 0.00 in - - ()
Snow Depth 0.00 in    
Sea Level Pressure  
Sea Level Pressure 30.28 in    
Wind  
Wind Speed 2 mph (SSE)    
Max Wind Speed 12 mph    
Max Gust Speed 17 mph    
Visibility 10 miles    
Events      
T = Trace of Precipitation, MM = Missing Value Source: NWS Daily Summary

Daily Weather History Graph

Daily Weather History Graph

Search for Another Location

Airport:

Trip Planner

Search our weather history database for the weather conditions in past years. The results will help you decide how hot, cold, wet, or windy it might be!

Date:

Astronomy

Apr. 09, 2013 Rise Set
Actual Time 6:20 AM PDT 7:36 PM PDT
Civil Twilight 5:49 AM PDT 8:07 PM PDT
Nautical Twilight 5:12 AM PDT 8:44 PM PDT
Astronomical Twilight 4:32 AM PDT 9:24 PM PDT
Moon 5:46 AM PDT (4/9) 7:17 PM PDT (4/9)
Length of Visible Light 14h 18m
Length of Day
13h 16m
Waning Crescent, 0% of the Moon is Illuminated
Apr 9
Waning Crescent
Apr 10
New
Apr 18
First Quarter
Apr 25
Full
May 2
Last Quarter

Hourly Weather History & Observations

Time (PDT) Temp. Windchill Dew Point Humidity Pressure Visibility Wind Dir Wind Speed Gust Speed Precip Events Conditions
12:53 AM 42.1 °F - 36.0 °F 79% 30.24 in 10.0 mi Calm Calm - N/A   Overcast
1:53 AM 36.0 °F - 34.0 °F 93% 30.25 in 10.0 mi Calm Calm - N/A   Clear
2:53 AM 36.0 °F - 33.1 °F 89% 30.25 in 10.0 mi Calm Calm - N/A   Partly Cloudy
3:53 AM 33.1 °F - 32.0 °F 96% 30.27 in 10.0 mi Calm Calm - N/A   Clear
4:53 AM 30.9 °F - 28.9 °F 92% 30.29 in 10.0 mi Calm Calm - N/A   Clear
5:53 AM 30.9 °F - 30.0 °F 96% 30.31 in 10.0 mi Calm Calm - N/A   Clear
6:53 AM 30.9 °F - 30.0 °F 96% 30.33 in 10.0 mi Calm Calm - N/A   Clear
7:53 AM 39.9 °F - 35.1 °F 83% 30.34 in 10.0 mi Calm Calm - N/A   Clear
8:53 AM 45.0 °F 43.5 °F 37.9 °F 76% 30.35 in 10.0 mi Variable 3.5 mph - N/A   Clear
9:53 AM 48.9 °F - 37.9 °F 66% 30.35 in 10.0 mi Calm Calm - N/A   Clear
10:53 AM 53.1 °F - 37.0 °F 55% 30.35 in 10.0 mi Variable 3.5 mph - N/A   Clear
11:53 AM 55.9 °F - 37.0 °F 49% 30.34 in 10.0 mi SSW 3.5 mph - N/A   Clear
12:53 PM 59.0 °F - 37.0 °F 44% 30.32 in 10.0 mi SE 5.8 mph - N/A   Clear
1:53 PM 60.1 °F - 35.1 °F 39% 30.30 in 10.0 mi Calm Calm - N/A   Clear
2:53 PM 62.1 °F - 37.0 °F 39% 30.29 in 10.0 mi South 8.1 mph - N/A   Mostly Cloudy
3:53 PM 63.0 °F - 35.1 °F 35% 30.26 in 10.0 mi SE 8.1 mph - N/A   Scattered Clouds
4:53 PM 63.0 °F - 33.1 °F 33% 30.26 in 10.0 mi SSE 6.9 mph - N/A   Clear
5:53 PM 64.0 °F - 33.1 °F 31% 30.24 in 10.0 mi SSE 8.1 mph - N/A   Clear
6:53 PM 62.1 °F - 34.0 °F 35% 30.23 in 10.0 mi SE 10.4 mph - N/A   Scattered Clouds
7:53 PM 60.1 °F - 35.1 °F 39% 30.22 in 10.0 mi SE 6.9 mph - N/A   Overcast
8:53 PM 57.9 °F - 36.0 °F 44% 30.22 in 10.0 mi SSE 8.1 mph - N/A   Mostly Cloudy
9:53 PM 54.0 °F - 37.9 °F 55% 30.22 in 10.0 mi SE 8.1 mph - N/A   Partly Cloudy
10:53 PM 54.0 °F - 39.9 °F 59% 30.20 in 10.0 mi SSE 6.9 mph - N/A   Mostly Cloudy
11:53 PM 53.1 °F - 39.0 °F 59% 30.18 in 10.0 mi ESE 5.8 mph - N/A   Overcast